Regional Weather Roundup
Issued by NWS

Home | Current Version | Previous Version | Graphics & Text | Print | Product List | Glossary On
Versions: 1 2 3 4 5 6 7 8 9 10 11 12 13 14 15 16 17 18 19 20 21 22 23 24 25 26 27 28 29 30 31 32 33 34 35 36 37 38 39 40 41 42 43 44 45 46 47 48 49 50
519
ASUS44 KLIX 020805
RWRLA
LOUISIANA WEATHER ROUNDUP
NATIONAL WEATHER SERVICE NEW ORLEANS LA
200 AM CST MON MAR 02 2015

NOTE: "FAIR" INDICATES FEW OR NO CLOUDS BELOW 12,000 FEET WITH NO
      SIGNIFICANT WEATHER AND/OR OBSTRUCTIONS TO VISIBILITY.
      SKY/WX - SKY CONDITION AND SIGNIFICANT WEATHER.
      TMP - AIR TEMPERATURE.    DP   - DEWPOINT TEMPERATURE.
      RH  - RELATIVE HUMIDITY.  PRES - PRESSURE.
      HX  - HEAT INDEX.         WCI  - WIND CHILL INDEX.

*  THESE STATIONS ARE NOT NWS OR FAA STATIONS AND ARE NOT UNDER
   NWS QUALITY CONTROL.

LAZ040-048-061>063-065-066-069-020900-
SOUTHEAST LOUISIANA

CITY           SKY/WX    TMP DP  RH WIND       PRES   REMARKS
N.O. AUDUBON     N/A     58  58 100 MISG        N/A
N.O. INTL ARPT LGT RAIN  60  58  92 CALM      30.27F FOG
N.O. LAKEFRONT RAIN      60  57  89 E16       30.27S FOG
SLIDELL        RAIN      61  60  97 E3        30.27F
BATON ROUGE    CLOUDY    61  60  97 E5        30.26F
BOOTHVILLE     FOG       61  61 100 E6        30.27F VSB 1/4
BELLE CHASSE   RAIN      59  56  89 E10       30.26F FOG
BOGALUSA*      RAIN      61  58  89 CALM      30.29F
GALLIANO*      FOG       54  54  99 MISG      30.27R VSB 1/4
NEW ROADS*     DRIZZLE   62  61  97 E6        30.26F
GONZALES*      CLOUDY    61  61 100 E7        30.26F
HAMMOND*       DRIZZLE   61  59  94 CALM      30.28S
HOUMA*         CLOUDY    60  60  99 NE6       30.26F
PORT FOURCHON* FOG       64  64 100 SE6       30.28S VSB 3/4

$$

LAZ041-044-053-054-020900-
SOUTHWEST LOUISIANA

CITY           SKY/WX    TMP DP  RH WIND       PRES   REMARKS
LAKE CHARLES   LGT RAIN  63  62  97 NE7       30.22F FOG
LAFAYETTE      LGT RAIN  63  62  97 E3        30.25S
PATTERSON      CLOUDY    61  59  94 NE8       30.26F
SALT POINT       N/A     64  63  96 VRB5      30.23F
NEW IBERIA     LGT RAIN  63  61  93 E9        30.25F
CHENAULT AIRPK RAIN      63  63 100 NE5       30.24F

$$

LAZ027-028-020900-
CENTRAL LOUISIANA

CITY           SKY/WX    TMP DP  RH WIND       PRES   REMARKS
FORT POLK      CLOUDY    50  50 100 VRB3      30.25F FOG
ALEXANDRIA INT FOG       48  48 100 NE5       30.27F VSB 3/4
ALEXANDRIA     CLOUDY    48  47  96 N7        30.29S

$$

LAZ001-002-020900-
NORTHWEST LOUISIANA

CITY           SKY/WX    TMP DP  RH WIND       PRES   REMARKS
SHREVEPORT     LGT RAIN  44  42  93 N9        30.32F FOG
BARKSDALE AFB  LGT RAIN  42  42 100 N5        30.33S
DTN SHREVEPORT LGT RAIN  42  40  92 N6        30.34S FOG

$$

LAZ014-016-020900-
NORTHEAST LOUISIANA

CITY           SKY/WX    TMP DP  RH WIND       PRES   REMARKS
MONROE         LGT RAIN  44  44 100 N8        30.34S FOG
TALLULAH       FOG       47  45  93 N8        30.31S VSB 1/2

$$




USA.gov is the U.S. government's official web portal to all federal, state and local government web resources and services.